Location: Unspecified
(33.6682°S, 0.0000°E)
Time: 14:42:15
(UTC+00:00)

Tiros 1 despin weight - Pass Details

Date: 24 June 2019
Orbit: 594 x 642 km, 48.2° (Epoch: 20 July)

Event Time Altitude Azimuth Distance (km) Brightness Sun altitude
Rises 12:24:36 0° 246° (WSW) 2,946 ? 32.7°
Reaches altitude 10° 12:27:57 10° 222° (SW) 2,047 ? 32.6°
Maximum altitude 12:30:34 15° 188° (S) 1,766 ? 32.5°
Drops below altitude 10° 12:33:12 10° 154° (SSE) 2,058 ? 32.5°
Sets 12:36:35 0° 130° (SE) 2,971 ? 32.3°
